Location: Cabrera Baja
(40.4089°N, 4.3354°W)
Time: 02:59:00
(UTC+00:00)

SL-16 R/B - Pass Details

Date: 14 July 2020
Orbit: 842 x 846 km, 71.0° (Epoch: 03 August)

Event Time Altitude Azimuth Distance (km) Brightness Sun altitude
Rises 03:47:21 0° 340° (NNW) 3,414 5.7 -11.9°
Reaches altitude 10° 03:49:52 10° 344° (NNW) 2,475 5.0 -11.6°
Maximum altitude 03:55:27 57° 63° (ENE) 988 3.0 -10.8°
Drops below altitude 10° 04:01:00 10° 142° (SE) 2,459 4.6 -10.0°
Sets 04:03:29 0° 146° (SSE) 3,390 5.3 -9.6°
